Dewpoint
38 38 39 38 38 37 38 39 39 37 36 35 33 34 36 35 34 32 31 36 34 29 26 28 29 27 28 23 18 18 17 20 20 18 19 18 19 24 27 29 29 28 26 26 28 27 24 24 26 22 24 26 26 28
38 38 38 38 38 37 37 39 39 37 37 35 32 33 36 35 34 33 29 33 35 31 26 30 31 32 33 31 25 22 19 22 26 20 18 19 18 23 22 21 22 20 11 14 19 20 18 22 23 19 23 25 26 27
37 37 37 38 38 38 37 36 39 38 37 35 31 32 35 36 34 35 29 29 27 23 20 21 28 35 37 31 34 16 20 26 25 29 24 21 19 22 17 14 16 10 10 10 12 15 13 15 12 13 17 23 25 23
37 37 37 37 38 37 37 37 37 38 37 36 30 32 35 36 36 33 28 30 27 24 18 16 24 23 20 13 15 21 23 24 28 29 25 22 20 21 15 10 4 3 7 4 8 11 10 22 15 14 17 22 23 23
37 37 37 37 38 37 37 37 37 37 37 36 29 33 34 36 35 32 31 30 30 24 18 18 22 27 7 4 2 14 22 26 27 24 24 20 19 16 13 6 2 6 4 1 0 7 9 10 14 16 17 23 22 21
37 37 37 37 37 38 37 37 37 37 37 35 28 33 34 35 36 33 22 33 30 30 23 16 19 8 4 1 1 11 24 28 28 24 22 19 19 16 9 4 6 6 8 9 5 9 11 12 15 20 22 25 22 20
37 37 37 37 37 38 37 37 36 37 37 34 27 33 32 35 25 19 21 27 28 32 20 -3 -21 -0 7 6 1 10 16 26 25 23 19 14 9 9 2 -1 3 6 6 7 9 10 6 10 13 20 22 23 24 24
38 38 37 37 37 38 38 37 36 37 37 31 28 33 34 32 27 19 26 23 23 10 1 -20 -19 -11 5 -2 -2 10 15 20 22 20 15 7 5 4 1 3 5 5 6 5 6 9 11 15 16 17 21 21 20 19
39 39 38 38 38 38 38 37 36 37 36 26 30 32 23 14 3 14 28 19 16 7 -7 -4 -11 -17 4 2 6 9 14 15 22 16 8 3 1 -0 4 5 5 6 6 6 7 7 8 11 13 15 17 18 17 17
39 39 39 39 38 38 38 37 36 37 33 24 19 6 -12 13 25 17 3 -5 3 7 8 1 8 -7 2 2 5 8 9 12 12 15 8 2 2 4 6 8 8 7 7 8 5 3 6 6 10 12 14 15 16 16
39 39 39 39 39 38 38 37 37 35 25 15 6 -3 18 18 3 -3 -11 -9 -5 -8 8 8 6 1 5 1 4 9 9 11 9 10 3 1 -1 4 6 6 7 8 8 8 9 9 9 9 9 10 12 14 15 15
40 40 40 39 39 38 38 38 37 29 25 20 22 20 9 -2 -9 -18 -16 -9 -9 -14 5 -1 3 6 5 8 9 8 9 10 6 3 -1 -2 -2 4 5 6 6 8 8 8 9 8 9 9 10 10 11 12 13 14
41 41 40 39 39 38 38 38 36 28 26 15 2 -8 -10 -8 -22 -24 -23 -19 -17 -4 3 3 -4 3 4 6 6 8 7 6 6 -1 -2 -2 4 4 4 6 6 7 7 7 8 9 9 9 10 10 10 12 13 12
42 42 41 40 39 38 38 38 30 21 7 -8 -14 -27 -17 -19 -17 -15 -15 -14 -3 5 5 3 2 1 2 4 5 6 5 -2 -2 -2 -4 -0 3 4 4 5 6 6 7 7 7 8 8 8 9 10 10 11 12 11
42 42 42 41 40 39 38 33 23 13 2 -13 -9 -14 -18 -3 0 1 1 5 7 5 2 0 1 2 2 4 1 2 1 -2 -4 -4 -3 3 4 4 5 6 6 6 6 7 8 8 8 8 9 9 10 11 11 12
43 43 42 42 41 40 36 27 18 9 7 -3 -3 -8 5 -1 1 7 6 1 5 3 2 -0 -1 -1 2 0 1 1 -2 -3 -4 -2 1 4 4 4 5 6 7 8 7 7 8 8 9 8 8 9 10 10 10 11
43 40 41 42 42 40 33 27 20 16 10 -6 -10 8 5 3 5 5 7 4 4 0 -10 -5 -17 -19 -4 -2 -2 -2 -2 -3 -2 1 3 5 4 4 5 7 8 8 7 8 8 8 9 10 10 9 7 9 10 10
41 40 42 40 32 29 22 24 24 16 9 -2 -8 3 9 9 7 7 6 4 3 -2 -4 -10 -5 -8 -13 -14 -9 -2 -1 -1 -0 1 3 1 3 5 6 7 8 8 8 8 8 8 8 8 8 8 9 10 10 10
42 41 42 37 34 30 25 19 13 12 10 5 9 11 10 8 6 8 6 4 2 2 -2 -3 -6 -11 -13 -5 -7 -4 -2 -1 -2 -2 -1 -2 -1 4 5 6 8 8 8 8 8 7 7 8 8 9 9 10 8 10
44 44 41 37 34 28 22 16 10 3 -4 2 10 8 7 6 5 4 4 4 3 0 -2 -4 -6 -4 -6 -3 -0 -2 -1 -2 -2 -2 -0 4 4 4 5 6 7 8 8 8 8 9 8 8 8 9 10 9 8 8
42 39 41 31 26 27 26 14 9 7 5 4 6 6 3 4 3 3 2 3 3 1 -2 -1 -2 -2 -2 -2 -2 -2 -2 -1 -2 -2 -1 1 2 5 6 6 7 7 7 8 7 8 7 6 7 8 8 8 8 8
32 31 26 26 22 17 14 10 12 7 3 3 5 5 2 2 2 1 2 1 1 2 1 -2 -3 -2 -1 -0 -0 -1 -1 -1 -3 -1 3 4 3 4 5 6 5 6 7 7 7 6 6 7 8 7 7 7 8 8
30 28 24 23 20 18 9 8 9 6 8 4 2 4 3 2 0 0 -0 1 1 2 0 -1 -2 -1 0 -2 -1 -2 -2 -1 -1 -1 0 1 2 3 5 5 5 4 5 5 6 6 6 9 8 6 6 6 6 6
30 25 22 20 19 8 5 5 6 5 3 2 3 4 3 1 -3 -3 -2 -1 -1 -0 -1 -2 -1 -1 -1 -1 -0 -0 -1 -2 -2 -1 -2 -0 0 2 3 3 3 3 4 6 5 5 5 5 6 4 4 4 4 5
22 20 20 12 5 5 4 3 3 3 4 3 4 4 -1 -3 -2 -2 -4 -4 -1 -1 0 0 0 -1 -1 -1 -1 -1 -4 -1 -1 -1 -2 -1 -0 0 1 2 2 2 4 3 3 3 3 3 3 3 2 3 3 4
18 18 16 14 7 7 5 3 2 3 4 3 4 -1 -0 -1 -1 1 -1 -4 -2 -0 -0 -0 -0 -2 -2 -3 -2 -1 -1 -4 -2 -1 -3 -3 -1 -1 -1 -0 -0 1 4 4 3 2 2 2 2 1 2 2 5 3
18 15 11 10 7 5 4 4 5 6 4 4 0 -2 -1 -0 0 -0 -1 -1 -0 0 1 1 0 -1 -2 -1 -1 -2 -2 -3 -2 -3 -4 -4 -3 -3 -2 -1 -0 3 4 3 3 2 2 2 2 2 2 2 2 2
9 9 10 7 7 8 6 5 6 5 6 6 2 -1 -0 2 4 2 1 1 -1 1 0 -0 -0 -1 -1 -0 -1 -2 -6 -7 -6 -5 -4 -4 -5 -4 -2 -1 1 4 4 4 3 3 3 3 3 3 3 3 3 2
5 8 8 5 7 8 6 5 6 3 2 5 3 3 3 2 1 1 1 0 0 -0 -1 -2 -3 -3 -4 -6 -6 -6 -4 -2 -2 -3 -4 -4 -3 -2 -3 -1 0 1 3 3 5 7 7 6 5 5 4 4 3 -0
4 7 6 6 5 2 -4 -4 -2 0 2 2 3 3 2 1 0 2 1 1 0 -1 -2 -1 -3 -2 -2 -2 -3 -3 -7 -6 -5 -4 -4 -4 -4 -4 -3 -1 -0 1 1 1 1 1 5 4 4 0 -0 -1 -3 -3
5 5 0 -2 -5 -5 -4 -2 -0 2 1 -0 1 1 -1 -0 1 1 0 -0 -2 -3 -3 -4 -5 -7 -4 -5 -4 -4 -4 -8 -8 -7 -7 -5 -6 -4 -3 -3 -3 -3 -2 -1 -0 -0 -2 -2 -1 -1 -1 -2 -3 -2
0 -1 -0 -3 -5 -3 -2 -2 -2 -2 -1 -1 -3 -0 -0 0 -0 -1 -1 -3 -4 -2 -0 -3 -3 -3 -6 -8 -8 -8 1 -5 -8 -8 -6 -4 -3 -3 -4 -4 -5 -4 -4 -3 -1 -0 -1 -2 -2 -2 -2 -2 -3 -3
0 -1 -2 -3 -4 -3 -2 -2 -2 -3 -3 -4 -5 -6 -5 -5 -3 -6 -5 -6 -4 -4 -3 -3 -4 -6 -7 -6 -6 -6 -0 -5 -4 2 3 4 5 3 -2 -5 -4 -3 -2 -1 1 1 0 -0 -2 -1 -2 -3 -3 -3
Wind_Speed
16 17 19 20 23 25 27 28 28 30 31 30 27 20 16 15 11 3 1 2 3 3 6 3 2 4 4 6 9 14 14 7 7 12 7 7 6 8 9 4 3 8 7 10 10 6 8 27 6 5 13 16 18 13
16 17 18 20 21 24 26 27 28 29 30 30 26 20 15 15 9 2 2 6 2 5 5 2 6 9 4 1 8 5 5 9 4 6 6 6 5 6 9 6 13 2 8 7 8 2 15 15 15 16 20 19 19 23
15 16 18 19 20 22 25 26 27 29 29 30 26 18 14 13 10 6 3 7 4 4 5 3 2 5 3 4 2 4 4 4 7 4 4 4 5 6 8 6 9 21 23 5 12 12 32 12 26 28 27 24 24 20
17 16 17 19 21 22 24 26 28 28 29 31 26 18 11 11 7 4 5 7 4 2 1 3 4 3 6 12 10 13 18 11 9 7 5 4 4 8 5 4 7 7 17 19 9 17 31 9 36 35 36 28 22 17
17 16 17 18 19 21 23 25 28 29 29 30 25 16 9 6 7 7 4 3 2 3 4 7 10 2 12 20 22 13 8 8 5 4 4 2 4 9 6 6 7 9 7 8 8 25 19 29 35 41 32 25 18 15
17 17 17 18 19 20 22 24 26 29 30 30 21 13 8 2 6 2 3 2 7 3 0 4 4 6 17 22 18 14 8 4 2 2 4 4 4 7 3 3 3 17 14 15 14 23 27 34 34 26 22 15 10 9
18 18 17 18 18 20 22 24 26 28 30 30 18 5 6 7 4 3 2 6 11 1 2 6 10 8 13 7 9 9 9 4 3 3 4 3 8 5 4 6 20 23 21 26 19 21 15 14 24 25 17 12 7 9
19 19 17 18 17 19 21 23 26 27 29 27 14 2 5 7 6 2 8 12 5 7 6 4 7 9 10 8 9 9 8 5 7 3 4 4 4 5 3 15 19 19 23 16 22 23 22 22 19 17 11 7 6 8
20 19 19 18 17 17 19 21 25 27 30 18 8 5 2 4 3 2 11 6 11 6 5 4 8 8 10 6 5 7 5 5 5 4 3 4 5 8 12 22 23 23 16 21 26 20 19 17 18 17 12 9 5 6
21 20 19 19 17 16 16 19 22 25 26 8 3 1 2 2 11 6 7 4 9 9 6 3 1 5 6 6 5 9 5 4 4 5 3 5 2 3 9 16 17 19 19 20 21 24 23 19 17 17 13 8 6 6
22 21 20 19 18 16 15 17 17 19 9 7 8 2 4 9 3 5 3 4 4 3 2 1 2 5 4 3 5 3 6 5 4 5 2 1 2 9 15 17 17 17 17 15 14 14 13 12 13 13 13 11 9 9
24 21 20 20 18 16 14 14 9 4 2 4 5 2 4 7 4 1 1 3 0 1 1 1 2 2 3 3 3 5 4 5 2 5 2 2 3 10 15 17 17 17 17 16 15 15 14 14 14 13 13 13 12 12
26 23 22 22 19 17 13 12 4 4 4 2 1 1 3 2 2 4 3 3 2 4 3 3 6 3 4 5 3 3 3 2 4 2 3 4 3 11 14 14 16 15 15 15 16 17 15 14 16 17 16 15 13 16
27 25 24 24 21 17 14 6 3 4 2 1 1 6 5 5 7 7 6 5 3 5 5 3 1 1 2 2 2 2 2 2 2 3 4 4 5 9 11 12 12 14 13 13 13 14 14 13 14 16 17 16 15 18
27 27 24 24 23 19 13 9 7 3 1 3 3 7 11 5 2 3 3 6 3 8 6 4 4 1 1 1 2 2 2 4 6 5 3 4 4 6 8 10 11 11 11 10 10 11 12 12 12 15 15 15 16 16
28 27 21 25 23 18 14 14 4 3 0 5 6 6 2 4 6 5 8 7 7 9 6 5 3 1 2 2 1 6 3 8 4 5 5 3 4 5 7 8 7 7 7 7 7 7 8 10 10 10 13 14 15 14
27 9 13 19 22 16 15 6 3 5 6 6 8 6 10 2 7 8 9 9 12 9 4 4 3 5 4 2 4 8 8 5 6 6 6 5 5 7 6 7 5 4 5 6 5 5 6 6 8 10 13 11 12 13
17 9 18 21 23 7 3 3 6 6 10 11 7 7 6 2 5 5 5 11 10 9 10 5 7 5 7 6 6 8 11 5 6 6 6 5 4 6 5 5 5 3 3 3 3 3 4 6 6 7 7 7 9 10
16 15 23 35 14 8 9 5 4 6 13 3 2 3 3 3 3 5 8 7 4 4 13 5 5 8 10 10 10 8 7 8 7 6 5 6 7 6 5 4 3 3 2 2 1 1 3 4 4 4 5 6 7 7
28 25 32 36 19 8 6 4 2 3 5 4 3 6 3 3 6 7 10 6 6 5 5 9 13 8 9 8 10 7 8 11 8 4 2 2 4 4 4 3 3 2 3 3 3 4 2 2 5 5 2 4 5 5
13 5 27 14 2 3 5 8 5 4 4 4 4 6 3 4 4 6 6 7 5 7 10 15 11 6 4 5 9 10 12 13 11 8 5 7 2 3 3 3 2 2 3 4 3 2 4 2 2 3 4 4 3 3
5 12 5 3 3 2 5 2 6 6 5 3 8 5 4 5 6 6 7 8 8 10 10 7 8 13 12 12 12 11 9 11 7 5 5 5 4 2 3 3 2 2 3 3 4 4 3 1 1 2 2 2 3 3
10 5 5 4 4 4 3 1 4 7 6 6 6 5 4 5 4 6 6 8 9 7 8 6 5 5 12 9 10 8 9 13 10 8 6 5 5 4 4 3 2 2 4 3 2 3 3 1 3 3 2 2 2 3
6 8 7 10 4 6 5 4 3 5 4 5 7 5 5 6 6 5 7 6 6 4 9 9 13 12 7 8 10 12 12 10 8 5 5 5 5 5 4 3 3 2 2 4 5 3 2 1 2 2 1 1 0 1
7 8 7 5 3 7 7 8 7 6 6 8 7 5 6 6 6 6 6 6 4 6 9 11 10 9 9 9 8 9 9 12 11 8 4 9 5 3 2 2 2 3 3 6 6 4 3 2 1 0 1 2 3 4
7 6 8 13 9 9 12 11 13 12 7 8 8 4 4 6 5 9 5 3 4 9 13 16 15 12 6 6 11 12 12 10 9 6 3 10 11 8 8 8 4 3 5 4 5 5 4 3 2 2 4 5 6 2
6 9 2 3 5 6 4 2 4 4 9 10 7 9 6 6 9 4 1 0 1 3 9 11 12 13 10 11 5 6 11 14 6 4 3 5 8 7 6 6 7 2 8 7 5 4 3 3 4 5 6 6 6 7
2 2 5 6 3 2 4 6 7 8 6 6 12 8 6 6 2 2 2 3 2 5 10 9 7 8 6 10 10 12 9 8 5 4 1 3 6 8 8 7 6 6 9 7 7 6 6 7 8 9 8 9 11 6
3 3 2 4 3 3 2 4 2 2 3 6 6 4 3 1 2 2 3 2 3 8 12 12 8 9 12 11 9 6 11 13 8 5 7 7 4 6 10 9 7 5 3 3 6 7 9 11 13 12 7 5 5 5
3 6 1 1 1 3 2 3 2 4 3 2 2 2 2 2 2 2 1 3 5 7 6 8 11 10 12 11 9 4 5 9 9 8 7 7 6 3 8 9 8 6 4 4 5 6 7 6 5 2 3 5 6 8
4 2 4 4 2 2 2 4 3 1 2 4 5 3 2 1 1 2 2 2 5 7 9 9 7 5 10 9 8 6 5 7 12 12 8 4 2 5 5 6 6 5 5 5 6 7 7 7 7 8 9 11 11 10
4 4 1 2 2 2 3 3 2 3 4 3 5 4 2 1 1 1 1 3 4 6 4 8 8 8 12 5 6 4 1 2 8 11 12 10 10 10 9 9 8 7 8 9 10 9 9 11 11 11 12 13 14 14
2 4 3 3 2 2 3 2 2 1 3 2 4 4 3 2 2 2 1 1 4 5 8 9 9 4 3 10 10 7 6 6 6 8 9 10 11 12 12 12 12 13 14 13 12 12 13 12 13 13 12 13 14 14
Wind_Direction
335 339 344 348 351 355 357 357 357 356 356 357 354 354 358 358 15 36 330 19 8 280 287 215 261 294 299 10 346 316 343 5 335 14 7 341 317 334 342 300 311 188 218 190 211 236 233 357 359 175 336 321 325 324
328 333 338 344 347 350 354 354 353 355 353 355 352 350 348 349 352 113 19 342 321 223 262 258 265 253 214 27 325 308 262 299 317 351 3 322 312 319 323 305 357 74 24 293 12 68 340 341 48 8 356 335 327 319
321 327 334 340 342 346 347 351 351 353 350 352 350 346 344 343 3 92 80 336 41 22 305 350 64 24 130 10 214 285 271 270 316 328 290 265 282 342 357 9 333 348 19 13 339 7 342 290 5 353 350 336 322 326
311 321 329 335 338 342 344 345 348 350 349 348 348 344 345 350 27 112 80 343 61 84 344 271 345 345 45 356 309 248 252 284 275 269 252 266 293 20 33 72 62 346 326 327 287 358 342 260 338 326 327 329 334 344
304 314 323 329 334 337 340 341 343 345 348 348 347 342 347 5 109 102 121 46 84 40 302 298 314 11 1 346 341 337 225 235 259 289 261 10 28 8 73 81 52 353 339 339 291 317 289 292 300 305 312 320 335 346
300 307 316 321 327 332 335 338 340 342 343 347 345 341 350 56 141 328 309 254 4 154 164 324 321 342 345 351 346 350 349 274 274 324 31 61 40 357 64 72 155 347 318 292 279 293 291 284 286 286 316 328 347 14
293 298 306 312 319 326 331 334 336 340 341 345 343 348 37 97 91 88 88 300 335 121 44 312 335 351 337 353 345 344 333 353 28 60 49 64 18 49 73 23 324 324 314 308 305 325 318 310 312 315 328 331 10 50
284 290 296 300 310 320 327 331 333 338 340 344 343 89 106 92 94 50 356 5 60 98 61 36 319 347 11 342 332 349 329 334 27 86 56 49 27 40 97 331 322 321 321 306 328 321 300 294 315 326 335 345 42 61
277 283 289 293 301 313 322 329 330 335 337 342 340 117 44 33 29 294 329 54 41 67 97 68 0 322 359 348 316 320 343 336 4 57 50 70 17 40 319 324 326 329 328 312 318 318 332 333 336 341 353 7 39 64
272 277 281 285 292 303 316 324 328 335 335 344 47 21 302 350 311 338 13 21 24 1 36 90 164 306 359 336 314 339 335 319 0 54 78 62 114 281 315 321 317 322 325 327 335 338 342 340 340 350 354 12 41 57
270 273 275 280 284 292 307 320 331 342 356 11 358 308 289 327 53 40 45 43 346 49 26 116 187 311 15 326 306 319 321 308 347 354 64 46 281 340 332 332 328 326 329 331 328 326 334 340 353 359 4 16 41 59
264 265 266 270 273 278 291 307 338 26 307 294 298 340 344 28 52 75 10 306 43 207 191 27 329 265 310 343 292 325 298 338 316 354 62 280 243 329 337 336 333 335 338 342 347 347 352 10 12 19 27 25 38 51
260 260 260 263 265 266 273 293 327 349 109 76 9 297 9 328 238 201 210 240 250 196 175 35 333 347 340 31 279 322 309 270 321 358 256 233 318 329 336 335 337 340 347 353 358 358 3 18 30 31 34 31 44 55
260 259 256 255 256 256 256 257 102 95 71 277 277 268 220 224 233 192 194 176 167 138 141 111 106 8 355 5 334 303 314 337 305 275 243 222 311 319 333 335 342 344 349 353 359 0 2 16 34 37 35 36 44 54
260 259 256 255 248 245 243 149 116 95 179 255 183 245 223 215 165 169 144 137 135 131 119 107 84 44 29 359 38 314 301 256 220 235 239 233 295 319 338 343 336 341 344 349 352 7 11 9 33 48 39 43 47 51
259 264 249 240 239 233 167 117 84 97 169 200 229 245 190 183 206 189 192 182 159 131 98 80 120 110 226 177 214 219 184 232 222 209 204 236 285 305 320 328 329 330 336 344 358 4 21 27 27 45 53 51 52 54
254 228 206 217 219 182 136 106 123 189 222 223 240 223 188 259 217 184 173 178 155 147 193 138 215 228 125 223 235 195 218 215 195 200 203 217 261 286 302 315 320 337 334 341 350 16 25 29 46 53 59 52 58 58
241 228 209 166 131 117 83 118 172 182 228 223 221 211 202 152 160 141 148 150 150 173 152 208 134 195 216 210 222 224 221 208 201 207 214 244 253 273 281 298 308 307 313 322 346 7 36 43 56 68 69 62 68 64
236 209 189 161 149 139 164 180 180 242 225 207 195 154 133 129 84 93 129 140 103 119 127 148 213 216 223 216 219 197 198 193 201 201 225 254 260 250 274 295 283 292 299 282 247 85 62 47 43 59 68 74 82 75
252 236 184 169 145 141 160 174 159 220 231 206 140 162 137 118 117 128 135 140 144 155 197 215 220 214 209 210 193 181 185 178 162 189 234 184 213 233 256 261 269 283 276 241 200 169 121 72 40 29 82 80 84 68
253 222 167 145 94 126 161 151 166 190 152 188 159 149 128 134 136 172 175 151 181 217 234 230 223 216 173 150 151 144 156 165 185 183 170 181 216 247 255 243 257 261 249 228 158 134 119 102 50 41 54 60 46 17
125 95 105 93 113 108 100 22 140 132 142 153 161 167 162 188 189 195 143 192 231 227 215 204 208 187 175 169 163 167 165 170 160 169 197 235 244 236 242 225 261 252 231 205 198 181 158 96 156 75 65 38 33 15
107 99 110 138 145 175 152 111 152 163 182 192 158 187 214 200 172 142 227 226 249 225 211 193 173 151 161 140 141 139 160 169 178 191 204 205 223 242 234 219 224 234 213 205 182 176 172 71 63 104 47 42 35 34
127 159 170 183 188 161 135 161 120 140 131 183 182 209 205 179 152 197 248 247 232 177 184 171 146 130 114 139 169 181 185 180 169 172 192 193 218 212 196 215 218 227 233 174 170 167 157 140 59 68 49 27 3 357
160 197 174 173 136 133 165 168 180 187 221 189 200 208 188 161 190 231 243 260 216 194 173 162 166 159 166 171 183 189 177 176 182 197 204 198 191 175 201 196 207 213 175 168 174 179 179 175 176 275 302 290 274 289
223 195 194 193 176 186 180 176 194 191 170 181 207 130 152 168 214 242 229 245 217 191 182 181 175 172 178 175 173 184 192 176 157 187 224 200 201 204 208 198 196 214 194 186 173 181 187 197 223 277 292 299 310 341
237 210 150 29 134 129 145 97 152 161 184 194 173 168 162 212 234 250 345 322 287 224 173 166 168 176 174 172 139 144 152 159 151 157 124 177 204 204 192 194 206 228 174 173 177 185 208 240 266 279 285 286 282 283
20 29 203 164 118 149 147 173 192 203 189 151 142 184 201 212 265 4 347 345 356 105 112 109 119 142 144 155 139 133 130 141 102 71 9 270 245 236 232 233 240 244 181 189 206 222 236 252 264 271 276 285 294 294
38 13 78 150 148 178 178 212 230 58 9 174 182 195 204 59 15 4 4 22 110 123 128 128 110 106 99 103 113 114 143 157 166 212 241 253 279 248 209 209 216 226 164 215 270 254 236 242 252 254 262 272 284 290
15 345 69 68 197 190 0 347 0 343 5 40 32 108 94 64 20 4 87 122 143 143 131 138 147 143 153 157 165 177 197 194 197 210 232 242 237 227 179 187 195 195 206 231 265 297 311 317 324 3 317 310 308 306
348 48 73 54 76 333 308 319 298 344 28 35 18 60 80 56 70 37 69 113 130 135 132 140 156 157 165 173 177 186 232 223 217 221 221 224 203 184 194 211 223 224 226 244 258 274 286 288 273 281 294 300 305 307
27 39 79 85 56 352 335 8 18 37 23 40 21 16 2 288 234 177 154 148 151 174 187 180 188 211 214 208 202 202 122 160 195 210 213 222 231 239 245 246 234 230 240 250 253 259 261 266 272 274 285 293 297 298
51 46 63 79 56 28 13 7 31 56 44 46 25 4 358 333 273 308 348 218 221 231 222 221 221 217 221 208 212 215 226 223 224 215 219 227 235 238 238 238 233 234 241 250 256 257 252 250 256 265 276 283 288 288